Location: Blackfoot
(53.5367°N, 112.7800°W)
Time: 16:03:57
(UTC-06:00)

Amateur Radio Satellites - All Passes

Search period start: 25 July 2016 15:33
Search period end: 26 July 2016 15:33
Location: Blackfoot, 53.5367°N, 112.7800°W

Satellite Date Start Highest point End Downlink Frequencies (MHz)
Time Altitude Azimuth
Oscar 19 25 Jul 15:36:30 15:39:37 16° 274° (W) 15:42:45 437.125/150
RS-15 25 Jul 15:36:48 15:49:09 76° 39° (NE) 16:01:33 29.354- 29.394
CUSAT 1 25 Jul 15:36:53 15:39:35 84° 257° (WSW) 15:42:41 437.405
DANDE 25 Jul 15:41:55 15:44:16 27° 69° (ENE) 15:46:34 436.750
VELOX 1 25 Jul 15:50:57 15:51:55 11° 312° (NW) 15:52:54 145.980
AO-85 25 Jul 15:52:19 15:57:34 62° 128° (SE) 16:02:31 145.980
HORYU 2 25 Jul 15:57:10 16:00:19 19° 56° (NE) 16:03:30 437.375
AO-7 25 Jul 15:58:04 16:06:28 87° 248° (WSW) 16:14:56 29.400- 29.500
SPROUT 25 Jul 15:59:30 16:01:38 14° 307° (NW) 16:03:46 437.525
SWISSCUBE 25 Jul 16:05:39 16:10:27 72° 104° (ESE) 16:15:11 437.505
GONETS M04 25 Jul 16:24:42 16:33:15 66° 93° (E) 16:41:52
Cosmos 2499 25 Jul 16:26:53 16:35:25 54° 90° (E) 16:43:41 435.465 / 435.565
BEESAT 25 Jul 16:27:17 16:32:06 83° 288° (WNW) 16:36:52 436.000
Cubesat XI-IV 25 Jul 16:28:59 16:31:08 12° 44° (NE) 16:33:16 437.490
Gurwin Techsat 1B 25 Jul 16:44:33 16:45:12 10° 279° (W) 16:45:52 435.225
AIST 1 25 Jul 16:47:17 16:48:12 11° 305° (NW) 16:49:08
ITUPSAT 1 25 Jul 16:49:15 16:53:57 57° 292° (WNW) 16:58:37 437.325
CUTE-I 25 Jul 16:51:41 16:55:03 17° 49° (NE) 16:58:24 437.470
LilacSat-2 25 Jul 17:01:09 17:01:49 10° 52° (NE) 17:02:28 437.200
TISAT 1 25 Jul 17:02:08 17:03:52 12° 309° (NW) 17:05:34 437.305
KKS-1 25 Jul 17:03:45 17:07:57 36° 97° (E) 17:12:05 437.445
SO-50 25 Jul 17:03:46 17:08:31 73° 43° (NE) 17:13:06 436.795
ITAMSAT 1 25 Jul 17:06:40 17:09:49 16° 274° (W) 17:12:59 435.822/435.867
NOAA 18 25 Jul 17:10:56 17:15:16 24° 53° (NE) 17:19:38 137.9125
NOAA 15 25 Jul 17:16:30 17:20:55 28° 58° (ENE) 17:25:22 137.62
BRITE-PL 25 Jul 17:18:03 17:21:22 23° 60° (ENE) 17:24:44 437.365/2234.400
MOZHAYETS 4 25 Jul 17:24:34 17:29:09 60° 102° (ESE) 17:33:39
DANDE 25 Jul 17:25:47 17:26:46 12° 270° (W) 17:27:44 436.750
HORYU 2 25 Jul 17:31:54 17:36:24 78° 255° (WSW) 17:40:56 437.375
AO-85 25 Jul 17:33:24 17:38:20 40° 329° (NNW) 17:42:58 145.980
HO-68 25 Jul 17:38:21 17:42:27 16° 35° (NE) 17:46:34 435.675
SWISSCUBE 25 Jul 17:44:12 17:47:48 22° 304° (NW) 17:51:24 437.505
STARS 25 Jul 17:47:25 17:51:46 49° 100° (E) 17:56:06 437.465
RS-15 25 Jul 17:49:42 18:01:13 49° 246° (WSW) 18:12:40 29.354- 29.394
AO-7 25 Jul 17:53:49 18:00:26 25° 271° (W) 18:07:07 29.400- 29.500
Cubesat XI-IV 25 Jul 18:04:53 18:10:02 48° 65° (ENE) 18:15:13 437.490
BEESAT 25 Jul 18:06:11 18:09:14 17° 308° (NW) 18:12:15 436.000
Cosmos 2499 25 Jul 18:20:11 18:28:44 49° 293° (WNW) 18:37:01 435.465 / 435.565
GONETS M04 25 Jul 18:22:39 18:30:41 40° 298° (WNW) 18:38:48
YUBILEINY 25 Jul 18:26:47 18:30:36 13° 31° (NNE) 18:34:25 435.215
GOMX 1 25 Jul 18:28:35 18:32:38 48° 68° (ENE) 18:36:53 467.674
ITUPSAT 1 25 Jul 18:28:52 18:30:52 13° 312° (NW) 18:32:52 437.325
CUTE-I 25 Jul 18:28:55 18:34:16 71° 70° (ENE) 18:39:38 437.470
DOVE 4 25 Jul 18:30:59 18:34:43 28° 61° (ENE) 18:38:40 437.250
LilacSat-2 25 Jul 18:31:30 18:35:21 64° 72° (ENE) 18:39:14 437.200
CUBESAT XI-V 25 Jul 18:39:00 18:43:28 47° 99° (E) 18:47:56 437.345
KKS-1 25 Jul 18:40:25 18:44:30 35° 297° (WNW) 18:48:35 437.445
SO-50 25 Jul 18:44:51 18:48:35 24° 243° (WSW) 18:52:13 436.795
NOAA 18 25 Jul 18:49:50 18:55:24 81° 254° (WSW) 19:01:01 137.9125
NOAA 15 25 Jul 18:55:14 19:00:25 60° 258° (WSW) 19:05:39 137.62
BRITE-PL 25 Jul 18:55:40 18:59:40 48° 261° (W) 19:03:46 437.365/2234.400
CINEMA 3 25 Jul 18:56:07 18:59:27 20° 56° (NE) 19:02:53 145.822/145.860
MOZHAYETS 4 25 Jul 19:02:20 19:05:59 24° 301° (WNW) 19:09:35
CANX-2 25 Jul 19:07:26 19:10:34 20° 59° (ENE) 19:13:41 2200.000
HORYU 2 25 Jul 19:12:00 19:13:45 12° 275° (W) 19:15:30 437.375
AAUSAT CUBESAT 2 25 Jul 19:15:56 19:16:47 11° 51° (NE) 19:17:38 437.432
AO-85 25 Jul 19:16:02 19:19:58 22° 352° (N) 19:23:41 145.980
CUTE 1.7 + AOD 2 25 Jul 19:20:54 19:24:16 23° 60° (ENE) 19:27:39 437.475
HO-68 25 Jul 19:21:48 19:28:34 47° 58° (ENE) 19:35:23 435.675
Cosmos 2504 25 Jul 19:23:03 19:23:52 10° 24° (NNE) 19:24:40 435.465 / 435.565
STARS 25 Jul 19:24:12 19:27:56 27° 300° (WNW) 19:31:39 437.465
STRAND 1 25 Jul 19:26:58 19:29:25 13° 84° (E) 19:31:52 437.568
Cubesat XI-IV 25 Jul 19:45:25 19:50:18 34° 265° (W) 19:55:13 437.490
UWE-3 25 Jul 19:56:39 19:59:48 18° 55° (NE) 20:02:59 435.000/436.395/437.385
PCSat 25 Jul 19:57:13 20:01:10 21° 108° (ESE) 20:05:07 145.827
ZACube-1 25 Jul 20:01:53 20:04:26 15° 53° (NE) 20:06:58 437.345
FUNcube-1 25 Jul 20:02:06 20:04:30 14° 52° (NE) 20:06:54 145.935
SEEDS 25 Jul 20:02:34 20:06:29 38° 66° (ENE) 20:10:25 437.485
RS-15 25 Jul 20:05:33 20:10:19 13° 272° (W) 20:15:06 29.354- 29.394
LilacSat-2 25 Jul 20:07:39 20:10:04 16° 271° (W) 20:12:32 437.200
GOMX 1 25 Jul 20:07:40 20:11:03 23° 269° (W) 20:14:34 467.674
DOVE 4 25 Jul 20:08:08 20:12:16 44° 263° (W) 20:16:41 437.250
CUTE-I 25 Jul 20:10:38 20:14:51 23° 270° (W) 20:19:05 437.470
CUBEBUG 2 25 Jul 20:13:54 20:17:59 31° 62° (ENE) 20:22:09 437.445
CUBESAT XI-V 25 Jul 20:16:45 20:20:42 29° 298° (WNW) 20:24:38 437.345
COMPASS 1 25 Jul 20:17:35 20:21:28 38° 67° (ENE) 20:25:22 437.405
Cosmos 2499 25 Jul 20:19:09 20:24:21 17° 319° (NW) 20:29:27 435.465 / 435.565
YUBILEINY 25 Jul 20:22:45 20:30:52 37° 60° (ENE) 20:38:54 435.215
GONETS M04 25 Jul 20:26:46 20:30:47 14° 327° (NNW) 20:34:50
CINEMA 3 25 Jul 20:31:28 20:36:01 78° 256° (WSW) 20:40:51 145.822/145.860
NOAA 18 25 Jul 20:33:34 20:36:57 16° 274° (W) 20:40:22 137.9125
BEESAT 3 25 Jul 20:36:56 20:40:50 63° 129° (SE) 20:44:45 437.485
BEESAT 2 25 Jul 20:39:50 20:43:34 41° 125° (SE) 20:47:20 435.950
NOAA 15 25 Jul 20:40:07 20:41:20 11° 278° (W) 20:42:33 137.62
CANX-2 25 Jul 20:41:46 20:46:02 65° 258° (WSW) 20:50:19 2200.000
Oscar 11 25 Jul 20:45:14 20:48:59 29° 63° (ENE) 20:52:46 145.826/435.025
AAUSAT CUBESAT 2 25 Jul 20:47:22 20:51:27 59° 71° (ENE) 20:55:33 437.432
M-CUBED/EXP-1 PRIME 25 Jul 20:52:31 20:55:45 25° 53° (NE) 20:59:13 437.505
CUTE 1.7 + AOD 2 25 Jul 20:55:38 20:59:50 54° 260° (W) 21:04:04 437.475
AO-85 25 Jul 20:57:50 21:01:52 25° 17° (NNE) 21:05:37 145.980
STRAND 1 25 Jul 21:04:22 21:09:31 75° 103° (ESE) 21:14:38 437.568
O/OREOS (USA 219) 25 Jul 21:09:04 21:12:08 18° 102° (ESE) 21:15:14 437.305
HO-68 25 Jul 21:09:20 21:16:18 51° 260° (W) 21:23:19 435.675
Cosmos 2504 25 Jul 21:14:02 21:21:07 28° 54° (NE) 21:27:47 435.465 / 435.565
AUBIESAT-1 25 Jul 21:19:37 21:23:12 35° 57° (ENE) 21:27:05 437.475
DELFI C3 25 Jul 21:24:36 21:28:06 30° 64° (ENE) 21:31:36 145.870
HUMSAT D 25 Jul 21:29:55 21:33:14 22° 59° (ENE) 21:36:31 437.325/437.525
UWE-3 25 Jul 21:31:04 21:35:40 85° 253° (WSW) 21:40:24 435.000/436.395/437.385
ZACube-1 25 Jul 21:35:25 21:39:59 76° 72° (ENE) 21:44:36 437.345
FUNcube-1 25 Jul 21:35:26 21:39:58 72° 71° (ENE) 21:44:34 145.935
PCSat 25 Jul 21:38:28 21:43:55 89° 317° (NW) 21:49:24 145.827
SEEDS 25 Jul 21:38:33 21:42:17 29° 266° (W) 21:46:01 437.485
CUBEBUG 2 25 Jul 21:50:03 21:54:28 44° 263° (W) 21:59:02 437.445
COMPASS 1 25 Jul 21:53:29 21:57:09 29° 266° (W) 22:00:48 437.405
Cosmos 2491 25 Jul 21:53:39 22:01:33 41° 84° (E) 22:09:29 435.465 / 435.565
CINEMA 3 25 Jul 22:12:02 22:14:04 13° 278° (W) 22:16:09 145.822/145.860
CUBEBUG 1 25 Jul 22:12:27 22:13:10 10° 49° (NE) 22:13:54 437.445
BEESAT 3 25 Jul 22:15:16 22:18:48 30° 331° (NNW) 22:22:21 437.485
BEESAT 2 25 Jul 22:17:41 22:21:27 39° 326° (NW) 22:25:15 435.950
PRISM 25 Jul 22:18:12 22:22:17 63° 102° (ESE) 22:26:20 437.425
YUBILEINY 25 Jul 22:19:38 22:28:27 71° 265° (W) 22:37:11 435.215
Oscar 11 25 Jul 22:20:52 22:25:01 42° 262° (W) 22:29:11 145.826/435.025
AAUSAT CUBESAT 2 25 Jul 22:24:20 22:27:19 19° 270° (W) 22:30:18 437.432
M-CUBED/EXP-1 PRIME 25 Jul 22:26:17 22:30:02 50° 254° (WSW) 22:34:08 437.505
AIST 2 25 Jul 22:27:01 22:30:38 31° 121° (ESE) 22:34:18 435.215
AO-85 25 Jul 22:38:29 22:43:10 65° 41° (NE) 22:47:25 145.980
TIGRISAT 25 Jul 22:40:51 22:43:29 15° 85° (E) 22:46:05 435.000
STRAND 1 25 Jul 22:44:16 22:48:15 23° 305° (NW) 22:52:13 437.568
O/OREOS (USA 219) 25 Jul 22:46:35 22:51:02 72° 302° (WNW) 22:55:33 437.305
AISAT 25 Jul 22:48:48 22:51:54 19° 56° (ENE) 22:55:03 437.250
AUBIESAT-1 25 Jul 22:54:09 22:57:42 33° 259° (WSW) 23:01:32 437.475
DX 1 25 Jul 22:54:35 22:57:19 17° 54° (NE) 23:00:03 434.975-435.025
UNISAT 6 25 Jul 22:56:04 22:59:36 21° 89° (E) 23:03:04 437.425
DELFI C3 25 Jul 22:59:16 23:02:55 34° 264° (W) 23:06:35 145.870
HO-68 25 Jul 23:03:44 23:05:51 11° 282° (WNW) 23:07:59 435.675
HUMSAT D 25 Jul 23:04:14 23:08:30 60° 258° (WSW) 23:12:48 437.325/437.525
Cosmos 2504 25 Jul 23:07:18 23:15:48 89° 260° (W) 23:23:36 435.465 / 435.565
UWE-3 25 Jul 23:10:28 23:12:53 14° 275° (W) 23:15:20 435.000/436.395/437.385
UKube-1 25 Jul 23:10:56 23:13:54 19° 56° (NE) 23:16:53 .
50 SAT 25 Jul 23:13:14 23:16:11 23° 63° (ENE) 23:19:09 437.505
FUNcube-1 25 Jul 23:13:34 23:16:43 18° 272° (W) 23:19:55 145.935
ZACube-1 25 Jul 23:13:45 23:16:49 17° 273° (W) 23:19:54 437.345
ESTCUBE 1 25 Jul 23:15:49 23:20:03 43° 66° (ENE) 23:24:20 437.505/2401.250
PCSat 25 Jul 23:23:14 23:28:00 30° 332° (NNW) 23:32:48 145.827
AIST 1 25 Jul 23:30:16 23:31:18 11° 55° (NE) 23:32:19
ISS 25 Jul 23:32:04 23:34:38 22° 150° (SSE) 23:37:14 145.825
ANTELSAT 25 Jul 23:34:05 23:38:33 42° 97° (E) 23:42:55 437.575/2403.000
VELOX 1 25 Jul 23:39:07 23:43:17 44° 67° (ENE) 23:47:29 145.980
QB50P2 25 Jul 23:41:03 23:41:53 10° 84° (E) 23:42:44 145.880/145.840
POLYITAN 1 25 Jul 23:43:32 23:44:34 11° 84° (E) 23:45:35 437.675
CUBEBUG 1 25 Jul 23:44:21 23:48:33 53° 69° (ENE) 23:52:48 437.445
SPROUT 25 Jul 23:46:26 23:50:05 28° 62° (ENE) 23:53:45 437.525
Cosmos 2491 25 Jul 23:49:30 23:58:06 61° 288° (WNW) 00:06:46 435.465 / 435.565
PRISM 25 Jul 23:54:17 23:57:14 20° 302° (WNW) 00:00:11 437.425
BEESAT 3 25 Jul 23:54:59 23:57:36 17° 354° (N) 00:00:12 437.485
BEESAT 2 25 Jul 23:57:27 00:00:15 18° 349° (NNW) 00:03:04 435.950
AIST 2 26 Jul 00:04:57 00:08:59 51° 322° (NW) 00:13:04 435.215
TIGRISAT 26 Jul 00:16:09 00:20:53 90° 83° (E) 00:25:30 435.000
YUBILEINY 26 Jul 00:17:54 00:23:38 20° 289° (WNW) 00:29:21 435.215
AO-85 26 Jul 00:19:34 00:23:14 25° 243° (WSW) 00:26:40 145.980
Cosmos 2499 26 Jul 00:19:56 00:21:03 10° 26° (NNE) 00:22:10 435.465 / 435.565
AISAT 26 Jul 00:23:33 00:27:56 74° 256° (WSW) 00:32:22 437.250
NANOSAT C BR1 26 Jul 00:26:11 00:29:45 25° 93° (E) 00:33:16 145.865
O/OREOS (USA 219) 26 Jul 00:28:15 00:31:17 17° 324° (NW) 00:34:20 437.305
DX 1 26 Jul 00:28:36 00:32:56 87° 251° (WSW) 00:37:20 434.975-435.025
GONETS M04 26 Jul 00:30:27 00:35:31 16° 38° (NE) 00:40:36
DUCHIFAT 1 26 Jul 00:31:11 00:34:48 26° 93° (E) 00:38:23 145.980
UNISAT 6 26 Jul 00:32:05 00:36:46 65° 289° (WNW) 00:41:19 437.425
UKube-1 26 Jul 00:45:11 00:49:29 75° 256° (WSW) 00:53:50 .
50 SAT 26 Jul 00:46:12 00:49:40 39° 262° (W) 00:53:09 437.505
TISAT 1 26 Jul 00:47:18 00:50:58 30° 63° (ENE) 00:54:41 437.305
QB50P1 26 Jul 00:47:26 00:51:30 39° 98° (E) 00:55:32 145.935-145.965
ITUPSAT 1 26 Jul 00:50:16 00:52:13 12° 48° (NE) 00:54:09 437.325
BUGSAT 1 26 Jul 00:52:13 00:55:28 21° 91° (E) 00:58:41 437.445
ESTCUBE 1 26 Jul 00:53:07 00:57:02 29° 266° (W) 01:00:58 437.505/2401.250
POPSAT HIP 1 26 Jul 00:53:41 00:57:50 44° 99° (E) 01:01:57 437.405
Cosmos 2504 26 Jul 01:01:43 01:08:01 25° 285° (WNW) 01:14:00 435.465 / 435.565
AIST 1 26 Jul 01:05:32 01:09:51 63° 76° (ENE) 01:14:10
ISS 26 Jul 01:07:28 01:10:40 54° 169° (S) 01:13:52 145.825
PCSat 26 Jul 01:09:09 01:13:05 20° 358° (N) 01:17:01 145.827
ANTELSAT 26 Jul 01:11:00 01:15:11 33° 297° (WNW) 01:19:17 437.575/2403.000
QB50P2 26 Jul 01:14:11 01:18:31 73° 104° (ESE) 01:22:48 145.880/145.840
VELOX 1 26 Jul 01:16:11 01:19:56 27° 266° (W) 01:23:43 145.980
POLYITAN 1 26 Jul 01:16:49 01:21:10 74° 103° (ESE) 01:25:28 437.675
SPROUT 26 Jul 01:21:47 01:25:52 43° 261° (W) 01:30:01 437.525
CUBEBUG 1 26 Jul 01:21:47 01:25:10 22° 269° (W) 01:28:34 437.445
JAS-2 26 Jul 01:27:00 01:31:43 33° 95° (E) 01:36:38 435.910
BEESAT 3 26 Jul 01:33:33 01:36:35 20° 18° (NNE) 01:39:37 437.485
BEESAT 2 26 Jul 01:36:35 01:39:26 18° 12° (NNE) 01:42:17 435.950
SWISSCUBE 26 Jul 01:41:26 01:45:33 29° 60° (ENE) 01:49:41 437.505
AIST 2 26 Jul 01:45:10 01:48:20 20° 345° (NNW) 01:51:30 435.215
Cosmos 2491 26 Jul 01:51:10 01:57:11 20° 316° (NW) 02:03:14 435.465 / 435.565
TIGRISAT 26 Jul 01:53:52 01:56:57 18° 306° (NW) 02:00:00 435.000
Oscar 19 26 Jul 01:59:58 02:03:52 21° 90° (E) 02:07:43 437.125/150
NANOSAT C BR1 26 Jul 02:01:34 02:05:43 47° 292° (WNW) 02:09:49 145.865
BEESAT 26 Jul 02:02:35 02:07:01 39° 63° (ENE) 02:11:27 436.000
AISAT 26 Jul 02:04:05 02:05:15 11° 276° (W) 02:06:25 437.250
DUCHIFAT 1 26 Jul 02:06:36 02:10:42 45° 293° (WNW) 02:14:46 145.980
DX 1 26 Jul 02:07:52 02:09:50 13° 274° (W) 02:11:49 434.975-435.025
UNISAT 6 26 Jul 02:10:24 02:12:37 13° 310° (NW) 02:14:49 437.425
Cosmos 2499 26 Jul 02:10:46 02:17:47 30° 56° (ENE) 02:24:19 435.465 / 435.565
TISAT 1 26 Jul 02:22:36 02:26:33 38° 262° (W) 02:30:32 437.305
QB50P1 26 Jul 02:23:25 02:27:12 30° 297° (WNW) 02:30:57 145.935-145.965
ITUPSAT 1 26 Jul 02:24:25 02:29:07 56° 68° (ENE) 02:33:50 437.325
UKube-1 26 Jul 02:25:12 02:26:20 11° 275° (W) 02:27:27 .
GONETS M04 26 Jul 02:26:42 02:35:10 48° 66° (ENE) 02:43:37
BUGSAT 1 26 Jul 02:26:59 02:31:10 56° 290° (WNW) 02:35:20 437.445
POPSAT HIP 1 26 Jul 02:29:48 02:33:29 28° 298° (WNW) 02:37:07 437.405
KKS-1 26 Jul 02:34:00 02:36:16 14° 51° (NE) 02:38:32 437.445
ISS 26 Jul 02:43:43 02:46:56 57° 189° (S) 02:50:09 145.825
AIST 1 26 Jul 02:44:05 02:47:00 18° 276° (W) 02:49:56
QB50P2 26 Jul 02:50:52 02:53:52 19° 303° (WNW) 02:56:52 145.880/145.840
POLYITAN 1 26 Jul 02:53:31 02:56:30 19° 303° (WNW) 02:59:29 437.675
PCSat 26 Jul 02:53:39 02:58:15 27° 24° (NNE) 03:02:51 145.827
MOZHAYETS 4 26 Jul 02:56:53 03:00:19 21° 57° (ENE) 03:03:46
Gurwin Techsat 1B 26 Jul 03:08:24 03:13:19 36° 96° (E) 03:18:12 435.225
BEESAT 3 26 Jul 03:11:05 03:15:01 57° 40° (NE) 03:18:56 437.485
JAS-2 26 Jul 03:12:05 03:17:03 46° 295° (WNW) 03:22:14 435.910
BEESAT 2 26 Jul 03:14:22 03:18:13 41° 35° (NE) 03:22:02 435.950
STARS 26 Jul 03:15:43 03:18:35 17° 54° (NE) 03:21:27 437.465
SWISSCUBE 26 Jul 03:18:30 03:23:10 50° 260° (W) 03:27:51 437.505
AIST 2 26 Jul 03:25:13 03:28:10 18° 9° (N) 03:31:07 435.215
ITAMSAT 1 26 Jul 03:31:15 03:35:13 22° 90° (E) 03:39:10 435.822/435.867
Oscar 19 26 Jul 03:38:34 03:43:45 74° 289° (WNW) 03:48:54 437.125/150
BEESAT 26 Jul 03:40:25 03:44:50 36° 263° (W) 03:49:17 436.000
AO-7 26 Jul 03:53:15 03:59:24 22° 86° (E) 04:05:28 29.400- 29.500
ITUPSAT 1 26 Jul 04:03:19 04:07:17 25° 268° (W) 04:11:15 437.325
Cosmos 2499 26 Jul 04:03:49 04:11:58 81° 262° (W) 04:19:26 435.465 / 435.565
BUGSAT 1 26 Jul 04:04:45 04:05:41 11° 310° (NW) 04:06:37 437.445
KKS-1 26 Jul 04:07:40 04:12:05 72° 72° (ENE) 04:16:34 437.445
CUBESAT XI-V 26 Jul 04:13:08 04:16:08 17° 55° (NE) 04:19:08 437.345
ISS 26 Jul 04:20:16 04:23:01 25° 208° (SSW) 04:25:44 145.825
GONETS M04 26 Jul 04:23:46 04:32:13 54° 270° (W) 04:40:41
MOZHAYETS 4 26 Jul 04:32:25 04:37:03 71° 257° (WSW) 04:41:43
PCSat 26 Jul 04:37:04 04:42:33 73° 48° (NE) 04:47:58 145.827
CUSAT 1 26 Jul 04:46:40 04:50:25 51° 101° (E) 04:53:26 437.405
Gurwin Techsat 1B 26 Jul 04:48:20 04:53:24 45° 296° (WNW) 04:58:26 435.225
BEESAT 3 26 Jul 04:49:10 04:52:28 25° 240° (WSW) 04:55:45 437.485
STARS 26 Jul 04:49:57 04:54:22 86° 254° (WSW) 04:58:51 437.465
BEESAT 2 26 Jul 04:52:19 04:56:03 38° 236° (SW) 04:59:46 435.950
DANDE 26 Jul 04:56:19 05:00:54 32° 97° (E) 05:04:30 436.750
JAS-2 26 Jul 04:59:51 05:01:01 11° 317° (NW) 05:02:10 435.910
AIST 2 26 Jul 05:03:51 05:07:44 36° 32° (NNE) 05:11:36 435.215
ITAMSAT 1 26 Jul 05:10:02 05:15:15 72° 290° (WNW) 05:20:24 435.822/435.867
HORYU 2 26 Jul 05:17:53 05:20:07 13° 86° (E) 05:22:20 437.375
Oscar 19 26 Jul 05:19:05 05:22:17 17° 310° (NW) 05:25:29 437.125/150
O/OREOS (USA 219) 26 Jul 05:32:01 05:35:39 23° 41° (NE) 05:39:18 437.305
AO-7 26 Jul 05:45:09 05:53:35 78° 109° (ESE) 06:01:56 29.400- 29.500
KKS-1 26 Jul 05:46:12 05:49:10 17° 271° (W) 05:52:11 437.445
CUBESAT XI-V 26 Jul 05:48:19 05:52:57 88° 265° (W) 05:57:35 437.345
Cosmos 2499 26 Jul 05:58:13 06:03:44 21° 287° (WNW) 06:08:59 435.465 / 435.565
Cosmos 2491 26 Jul 05:59:25 06:01:43 11° 26° (NNE) 06:04:01 435.465 / 435.565
RS-15 26 Jul 06:13:19 06:20:35 19° 94° (E) 06:28:02 29.354- 29.394
MOZHAYETS 4 26 Jul 06:13:37 06:15:06 11° 277° (W) 06:16:35
Cubesat XI-IV 26 Jul 06:17:51 06:19:22 11° 81° (E) 06:20:53 437.490
PCSat 26 Jul 06:21:03 06:25:31 27° 248° (WSW) 06:29:57 145.827
GONETS M04 26 Jul 06:22:59 06:26:56 14° 294° (WNW) 06:30:54
GOMX 1 26 Jul 06:25:11 06:26:28 11° 83° (E) 06:27:48 467.674
STARS 26 Jul 06:29:22 06:31:27 13° 274° (W) 06:33:32 437.465
Gurwin Techsat 1B 26 Jul 06:30:28 06:32:09 11° 317° (NW) 06:33:50 435.225
CUSAT 1 26 Jul 06:30:51 06:32:34 13° 295° (WNW) 06:34:09 437.405
DANDE 26 Jul 06:39:02 06:43:39 34° 289° (WNW) 06:47:15 436.750
CUTE-I 26 Jul 06:40:24 06:43:55 17° 87° (E) 06:47:24 437.470
AIST 2 26 Jul 06:42:19 06:46:23 52° 233° (SW) 06:50:27 435.215
STRAND 1 26 Jul 06:48:08 06:52:50 37° 62° (ENE) 06:57:33 437.568
ITAMSAT 1 26 Jul 06:50:41 06:53:55 17° 311° (NW) 06:57:06 435.822/435.867
BRITE-PL 26 Jul 06:52:36 06:56:48 32° 95° (E) 07:01:17 437.365/2234.400
HORYU 2 26 Jul 06:52:51 06:57:23 87° 109° (ESE) 07:01:52 437.375
NOAA 15 26 Jul 07:03:51 07:08:33 32° 95° (E) 07:13:14 137.62
NOAA 18 26 Jul 07:05:44 07:10:23 26° 92° (E) 07:14:59 137.9125
O/OREOS (USA 219) 26 Jul 07:11:03 07:15:34 76° 244° (WSW) 07:20:07 437.305
CUBESAT XI-V 26 Jul 07:28:34 07:31:02 14° 274° (W) 07:33:30 437.345
LilacSat-2 26 Jul 07:32:53 07:36:35 40° 98° (E) 07:40:14 437.200
AO-7 26 Jul 07:38:23 07:45:48 37° 312° (NW) 07:53:13 29.400- 29.500
PRISM 26 Jul 07:40:08 07:42:45 17° 56° (NE) 07:45:23 437.425
Cosmos 2491 26 Jul 07:54:50 08:02:25 31° 56° (ENE) 08:09:59 435.465 / 435.565
Cubesat XI-IV 26 Jul 07:55:16 08:00:37 61° 102° (ESE) 08:05:53 437.490
DOVE 4 26 Jul 07:59:34 08:04:11 34° 95° (E) 08:08:57 437.250
GOMX 1 26 Jul 08:00:35 08:05:27 62° 101° (E) 08:10:38 467.674
RS-15 26 Jul 08:19:02 08:30:21 62° 120° (ESE) 08:42:14 29.354- 29.394
CUTE-I 26 Jul 08:19:20 08:24:44 90° 104° (ESE) 08:30:06 437.470
CINEMA 3 26 Jul 08:20:10 08:23:50 20° 88° (E) 08:27:28 145.822/145.860
CANX-2 26 Jul 08:21:31 08:23:58 15° 87° (E) 08:26:24 2200.000
STRAND 1 26 Jul 08:27:05 08:32:00 42° 262° (W) 08:36:54 437.568
HO-68 26 Jul 08:30:00 08:35:49 25° 89° (E) 08:41:33 435.675
HORYU 2 26 Jul 08:30:26 08:33:22 17° 306° (NW) 08:36:19 437.375
BRITE-PL 26 Jul 08:31:03 08:35:25 43° 293° (WNW) 08:40:06 437.365/2234.400
CUTE 1.7 + AOD 2 26 Jul 08:34:52 08:37:44 18° 89° (E) 08:40:35 437.475
NOAA 15 26 Jul 08:43:29 08:48:33 50° 295° (WNW) 08:53:37 137.62
NOAA 18 26 Jul 08:45:58 08:51:30 65° 292° (WNW) 08:56:58 137.9125
O/OREOS (USA 219) 26 Jul 08:52:26 08:54:12 12° 263° (W) 08:55:57 437.305
SO-50 26 Jul 09:04:19 09:08:19 26° 118° (ESE) 09:12:18 436.795
ANTELSAT 26 Jul 09:04:32 09:07:15 15° 52° (NE) 09:09:58 437.575/2403.000
LilacSat-2 26 Jul 09:07:30 09:10:44 25° 297° (WNW) 09:13:57 437.200
PRISM 26 Jul 09:13:31 09:17:36 76° 256° (WSW) 09:21:41 437.425
SEEDS 26 Jul 09:15:33 09:19:15 30° 94° (E) 09:22:56 437.485
UWE-3 26 Jul 09:15:42 09:18:16 15° 85° (E) 09:20:49 435.000/436.395/437.385
ZACube-1 26 Jul 09:20:13 09:21:01 10° 82° (E) 09:21:49 437.345
COMPASS 1 26 Jul 09:29:23 09:33:04 29° 95° (E) 09:36:42 437.405
AO-7 26 Jul 09:31:39 09:36:22 17° 337° (NNW) 09:41:03 29.400- 29.500
YUBILEINY 26 Jul 09:33:10 09:40:32 32° 79° (E) 09:47:57 435.215
CUBEBUG 2 26 Jul 09:34:29 09:38:37 28° 92° (E) 09:42:40 437.445
Cubesat XI-IV 26 Jul 09:35:50 09:40:23 29° 302° (WNW) 09:44:55 437.490
DOVE 4 26 Jul 09:37:12 09:41:59 45° 293° (WNW) 09:46:56 437.250
GOMX 1 26 Jul 09:39:16 09:43:16 26° 299° (WNW) 09:47:28 467.674
TIGRISAT 26 Jul 09:44:54 09:48:51 28° 61° (ENE) 09:52:52 435.000
Cosmos 2491 26 Jul 09:51:37 10:00:24 84° 262° (W) 10:09:11 435.465 / 435.565
CANX-2 26 Jul 09:56:08 10:00:23 78° 288° (WNW) 10:04:36 2200.000
CINEMA 3 26 Jul 09:56:28 10:01:30 77° 287° (WNW) 10:06:32 145.822/145.860
AAUSAT CUBESAT 2 26 Jul 09:58:37 10:02:36 45° 99° (E) 10:06:33 437.432
CUTE-I 26 Jul 10:00:16 10:04:10 21° 308° (NW) 10:08:03 437.470
UNISAT 6 26 Jul 10:00:28 10:04:46 38° 65° (ENE) 10:09:08 437.425
Oscar 11 26 Jul 10:01:46 10:05:17 24° 92° (E) 10:08:47 145.826/435.025
Cosmos 2504 26 Jul 10:02:54 10:08:25 19° 71° (ENE) 10:13:53 435.465 / 435.565
CUTE 1.7 + AOD 2 26 Jul 10:09:49 10:14:02 65° 289° (WNW) 10:18:12 437.475
QB50P1 26 Jul 10:13:10 10:14:51 12° 51° (NE) 10:16:34 145.935-145.965
HO-68 26 Jul 10:17:09 10:24:25 86° 291° (WNW) 10:31:37 435.675
POPSAT HIP 1 26 Jul 10:19:05 10:21:09 13° 52° (NE) 10:23:13 437.405
NOAA 15 26 Jul 10:25:06 10:27:14 13° 316° (NW) 10:29:23 137.62
NOAA 18 26 Jul 10:27:51 10:31:13 17° 314° (NW) 10:34:34 137.9125
AUBIESAT-1 26 Jul 10:27:57 10:29:24 11° 90° (E) 10:30:52 437.475
DELFI C3 26 Jul 10:30:35 10:33:34 20° 91° (E) 10:36:31 145.870
RS-15 26 Jul 10:31:19 10:43:03 65° 329° (NNW) 10:55:22 29.354- 29.394
QB50P2 26 Jul 10:38:30 10:41:34 20° 58° (ENE) 10:44:40 145.880/145.840
ANTELSAT 26 Jul 10:38:33 10:43:13 76° 73° (ENE) 10:47:58 437.575/2403.000
POLYITAN 1 26 Jul 10:41:05 10:44:12 20° 58° (ENE) 10:47:20 437.675
HUMSAT D 26 Jul 10:42:24 10:44:54 15° 87° (E) 10:47:22 437.325/437.525
SO-50 26 Jul 10:43:34 10:48:27 73° 318° (NW) 10:53:17 436.795
UWE-3 26 Jul 10:50:44 10:55:28 89° 120° (ESE) 11:00:01 435.000/436.395/437.385
SEEDS 26 Jul 10:51:11 10:55:03 37° 294° (WNW) 10:58:52 437.485
PRISM 26 Jul 10:53:10 10:53:40 10° 275° (W) 10:54:09 437.425
FUNcube-1 26 Jul 10:53:19 10:57:51 64° 102° (ESE) 11:02:15 145.935
ZACube-1 26 Jul 10:53:40 10:58:14 68° 102° (ESE) 11:02:40 437.345
COMPASS 1 26 Jul 11:04:52 11:08:42 36° 294° (WNW) 11:12:29 437.405
CUBEBUG 2 26 Jul 11:10:51 11:15:27 48° 293° (WNW) 11:19:56 437.445
DOVE 4 26 Jul 11:17:33 11:18:36 11° 313° (NW) 11:19:39 437.250
TIGRISAT 26 Jul 11:20:48 11:25:19 51° 261° (W) 11:29:57 435.000
AO-7 26 Jul 11:22:40 11:25:52 13° 5° (N) 11:29:05 29.400- 29.500
NANOSAT C BR1 26 Jul 11:24:05 11:28:03 41° 66° (ENE) 11:32:05 145.865
YUBILEINY 26 Jul 11:27:44 11:36:33 78° 283° (WNW) 11:45:28 435.215
DUCHIFAT 1 26 Jul 11:28:49 11:32:49 42° 67° (ENE) 11:36:52 145.980
M-CUBED/EXP-1 PRIME 26 Jul 11:33:06 11:37:35 46° 105° (ESE) 11:42:09 437.505
CANX-2 26 Jul 11:33:30 11:35:34 13° 306° (NW) 11:37:37 2200.000
AAUSAT CUBESAT 2 26 Jul 11:34:31 11:37:54 25° 298° (WNW) 11:41:17 437.432
CINEMA 3 26 Jul 11:34:47 11:37:53 17° 307° (NW) 11:41:01 145.822/145.860
UNISAT 6 26 Jul 11:37:13 11:41:30 36° 264° (W) 11:45:52 437.425
Oscar 11 26 Jul 11:37:29 11:41:41 49° 291° (WNW) 11:45:51 145.826/435.025
QB50P1 26 Jul 11:45:39 11:49:51 66° 72° (ENE) 11:54:07 145.935-145.965
JAS-2 26 Jul 11:46:19 11:51:23 33° 61° (ENE) 11:56:07 435.910
Oscar 19 26 Jul 11:47:07 11:49:27 13° 46° (NE) 11:51:46 437.125/150
CUTE 1.7 + AOD 2 26 Jul 11:47:36 11:49:05 12° 308° (NW) 11:50:35 437.475
BUGSAT 1 26 Jul 11:47:46 11:51:26 32° 64° (ENE) 11:55:11 437.445
Cosmos 2491 26 Jul 11:49:33 11:56:01 24° 285° (WNW) 12:02:29 435.465 / 435.565
Cosmos 2504 26 Jul 11:51:26 12:00:11 66° 94° (E) 12:08:51 435.465 / 435.565
POPSAT HIP 1 26 Jul 11:51:58 11:56:13 74° 73° (ENE) 12:00:31 437.405
AUBIESAT-1 26 Jul 12:00:03 12:04:39 66° 109° (ESE) 12:09:18 437.475
DELFI C3 26 Jul 12:04:52 12:08:42 50° 290° (WNW) 12:12:31 145.870
HO-68 26 Jul 12:05:33 12:11:20 27° 313° (NW) 12:17:06 435.675
AISAT 26 Jul 12:08:29 12:10:55 14° 87° (E) 12:13:20 437.250
50 SAT 26 Jul 12:10:03 12:11:18 11° 87° (E) 12:12:33 437.505
QB50P2 26 Jul 12:12:43 12:16:57 68° 257° (WSW) 12:21:16 145.880/145.840
DX 1 26 Jul 12:12:44 12:13:47 11° 85° (E) 12:14:50 434.975-435.025
POLYITAN 1 26 Jul 12:15:21 12:19:37 67° 258° (WSW) 12:23:54 437.675
HUMSAT D 26 Jul 12:16:50 12:21:05 76° 287° (WNW) 12:25:15 437.325/437.525
ANTELSAT 26 Jul 12:17:18 12:20:30 18° 272° (W) 12:23:42 437.575/2403.000
SO-50 26 Jul 12:25:29 12:29:40 28° 340° (NNW) 12:33:47 436.795
UKube-1 26 Jul 12:27:38 12:29:21 12° 86° (E) 12:31:04 .
UWE-3 26 Jul 12:28:14 12:31:18 18° 305° (NW) 12:34:19 435.000/436.395/437.385
FUNcube-1 26 Jul 12:30:13 12:33:42 22° 302° (WNW) 12:37:08 145.935
ZACube-1 26 Jul 12:30:40 12:34:05 21° 302° (WNW) 12:37:27 437.345
ESTCUBE 1 26 Jul 12:38:20 12:42:33 38° 97° (E) 12:46:44 437.505/2401.250
RS-15 26 Jul 12:46:20 12:58:00 50° 1° (N) 13:09:58 29.354- 29.394
CUBEBUG 2 26 Jul 12:50:02 12:50:59 11° 313° (NW) 12:51:57 437.445
Gurwin Techsat 1B 26 Jul 12:57:47 13:01:48 22° 54° (NE) 13:05:50 435.225
VELOX 1 26 Jul 12:58:57 13:03:04 36° 97° (E) 13:07:11 145.980
NANOSAT C BR1 26 Jul 13:00:15 13:03:56 28° 266° (W) 13:07:39 145.865
SPROUT 26 Jul 13:01:32 13:04:53 21° 91° (E) 13:08:13 437.525
CUBEBUG 1 26 Jul 13:02:31 13:06:45 44° 99° (E) 13:10:59 437.445
DUCHIFAT 1 26 Jul 13:05:04 13:08:41 27° 266° (W) 13:12:20 145.980
M-CUBED/EXP-1 PRIME 26 Jul 13:07:50 13:11:59 33° 303° (WNW) 13:16:12 437.505
AO-7 26 Jul 13:09:49 13:15:39 22° 32° (NNE) 13:21:29 29.400- 29.500
ITAMSAT 1 26 Jul 13:18:57 13:21:43 15° 47° (NE) 13:24:29 435.822/435.867
Oscar 19 26 Jul 13:22:47 13:27:46 55° 67° (ENE) 13:32:48 437.125/150
BUGSAT 1 26 Jul 13:23:03 13:26:48 34° 263° (W) 13:30:39 437.445
QB50P1 26 Jul 13:23:11 13:26:06 18° 271° (W) 13:29:02 145.935-145.965
YUBILEINY 26 Jul 13:28:02 13:35:02 25° 309° (NW) 13:42:06 435.215
POPSAT HIP 1 26 Jul 13:29:53 13:32:32 16° 272° (W) 13:35:12 437.405
JAS-2 26 Jul 13:30:40 13:36:24 52° 260° (W) 13:41:39 435.910
AUBIESAT-1 26 Jul 13:35:03 13:38:46 25° 307° (NW) 13:42:31 437.475
50 SAT 26 Jul 13:41:50 13:45:28 79° 286° (WNW) 13:49:04 437.505
AIST 1 26 Jul 13:42:01 13:45:32 26° 88° (E) 13:49:04
AISAT 26 Jul 13:43:33 13:48:02 88° 291° (WNW) 13:52:31 437.250
Cosmos 2504 26 Jul 13:45:51 13:54:08 41° 297° (WNW) 14:02:19 435.465 / 435.565
DX 1 26 Jul 13:46:24 13:50:48 73° 105° (ESE) 13:55:10 434.975-435.025
HUMSAT D 26 Jul 13:53:59 13:56:00 13° 307° (NW) 13:58:01 437.325/437.525
HO-68 26 Jul 13:55:23 13:56:45 11° 338° (NNW) 13:58:05 435.675
TISAT 1 26 Jul 14:00:12 14:03:32 22° 92° (E) 14:06:50 437.305
UKube-1 26 Jul 14:01:45 14:06:08 82° 107° (ESE) 14:10:28 .
SO-50 26 Jul 14:07:46 14:11:31 22° 4° (N) 14:15:12 436.795
ESTCUBE 1 26 Jul 14:15:18 14:19:19 33° 297° (WNW) 14:23:21 437.505/2401.250
VELOX 1 26 Jul 14:35:31 14:39:32 34° 296° (WNW) 14:43:34 145.980
Gurwin Techsat 1B 26 Jul 14:35:52 14:41:12 83° 255° (WSW) 14:46:35 435.225
SPROUT 26 Jul 14:36:55 14:41:10 55° 291° (WNW) 14:45:23 437.525
AO-85 26 Jul 14:38:38 14:43:00 26° 118° (ESE) 14:47:12 145.980
CUBEBUG 1 26 Jul 14:39:08 14:42:54 28° 298° (WNW) 14:46:40 437.445
ITAMSAT 1 26 Jul 14:55:06 15:00:15 61° 68° (ENE) 15:05:25 435.822/435.867
Cosmos 2499 26 Jul 14:57:09 15:03:00 20° 73° (ENE) 15:08:43 435.465 / 435.565
AO-7 26 Jul 14:58:43 15:06:46 54° 57° (ENE) 15:14:51 29.400- 29.500
RS-15 26 Jul 15:00:35 15:12:52 68° 33° (NNE) 15:25:12 29.354- 29.394
Oscar 19 26 Jul 15:03:04 15:07:25 28° 267° (W) 15:11:49 437.125/150
CUSAT 1 26 Jul 15:11:49 15:14:31 56° 75° (ENE) 15:17:38 437.405
SWISSCUBE 26 Jul 15:12:19 15:16:21 27° 93° (E) 15:20:22 437.505
50 SAT 26 Jul 15:17:28 15:18:29 11° 306° (NW) 15:19:29 437.505
AIST 1 26 Jul 15:18:56 15:22:57 41° 288° (WNW) 15:27:02
AISAT 26 Jul 15:21:10 15:23:55 16° 306° (NW) 15:26:40 437.250
DX 1 26 Jul 15:23:26 15:26:33 19° 304° (WNW) 15:29:39 434.975-435.025
DANDE 26 Jul 15:27:37 15:29:48 22° 68° (ENE) 15:31:58 436.750
